Regional Weather Roundup
Issued by NWS Green Bay, WI

Home | Current Version | Previous Version | Graphics & Text | Print | Product List | Glossary Off
Versions: 1 2 3 4 5 6 7 8 9 10 11 12 13 14 15 16 17 18 19 20 21 22 23 24 25 26 27 28 29 30 31 32 33 34 35 36 37 38 39 40 41 42 43 44 45 46 47 48 49 50

000
ASUS43 KGRB 202300
RWRGRB

NORTH-CENTRAL AND NORTHEAST WISCONSIN REGIONAL WEATHER ROUNDUP
NATIONAL WEATHER SERVICE GREEN BAY WI
600 PM CDT FRI APR 20 2018

WIZ005-009-010>012-018-019-210000-
NORTH CENTRAL WISCONSIN

CITY           SKY/WX    TMP DP  RH WIND       PRES   REMARKS
IRONWOOD       FAIR      53  17  24 NW7       30.38S
MANITOWISH WTR NOT AVBL
ARBOR VITAE    NOT AVBL
EAGLE RIVER    FAIR      54   5  13 W3        30.37S
LAND O LAKES   FAIR      57   5  12 W5        30.38S
RHINELANDER    FAIR      50  17  27 SW9       30.38F
PHILLIPS       FAIR      53  14  21 SW7       30.38F
ANTIGO         NOT AVBL
TOMAHAWK       NOT AVBL
MERRILL          N/A     52  17  24 SW9       30.41F
$$

WIZ013-073-210000-
NORTHEAST WISCONSIN

CITY           SKY/WX    TMP DP  RH WIND       PRES   REMARKS
IRON MOUNTAIN  FAIR      59  14  17 NE6       30.35F
MARINETTE      FAIR      51  16  24 SW14      30.41F
$$

WIZ017-030-035>037-045-210000-
CENTRAL WISCONSIN

CITY           SKY/WX    TMP DP  RH WIND       PRES   REMARKS
MEDFORD        NOT AVBL
WAUSAU         FAIR      51  16  24 W8        30.40F
MOSINEE        PTSUNNY   50  16  25 W5        30.43S
MARSHFIELD     FAIR      53  14  21 CALM      30.40F
WISC RAPIDS    FAIR      54  11  18 W3        30.42F
STEVENS POINT  NOT AVBL
WAUPACA        FAIR      55  15  20 SE8       30.42F
SHAWANO        FAIR      56  13  17 S7        30.40F
CLINTONVILLE   FAIR      52  16  24 S8        30.42F
WAUTOMA        FAIR      54  17  23 E5        30.42F
$$

WIZ038-039-048-051-210000-
FOX VALLEY

CITY           SKY/WX    TMP DP  RH WIND       PRES   REMARKS
NWS GREEN BAY  FAIR      49  19  30 S8        30.43F
APPLETON       MOSUNNY   50  18  27 S6        30.41F
OSHKOSH        FAIR      48  25  40 S3        30.43F
FOND DU LAC    FAIR      51  14  22 S5        30.43F
$$

WIZ022-050-052-210000-
EAST CENTRAL WISCONSIN

CITY           SKY/WX    TMP DP  RH WIND       PRES   REMARKS
EPHRAIM        NOT AVBL
WASHINGTON ISL NOT AVBL
STURGEON BAY   FAIR      51  15  23 S9        30.43F
MANITOWOC      FAIR      49  22  34 S7        30.45F
SHEBOYGAN      FAIR      51  29  42 SE5       30.44F
$$

LMZ563-521-522-541>543-210000-
LAKESHORE

STATION/POSITION TIME  TEMP    WIND        PRES    VSBY  WAVE
                       AIR SEA DIR/SP/G                  HT/PER
                 (UTC) (F)     (DEG/KT/KT) (MB)    (MI)  (FT/S)
SHEBOYGAN LKSHOR 2200   44     170/ 13/ 13 1031.9F
KEWAUNEE LKSHORE 2230   40     180/  9/ 10 1030.2F
NORTHPORT PIER   2240   48                 1029.5F
SISTER BAY LKSHO 2212   46     300/  3/  4   N/A
MENOMINEE LKSHOR 2230   49     180/  9/ 12 1029.7F
$$



USA.gov is the U.S. government's official web portal to all federal, state and local government web resources and services.